Torna al catalogo

GEESAT 1-06

AttivoComunicazioniLEO
NORAD 52790·PAYLOAD·🇨🇳 China

Lanciato Jun 2, 2022 da Xichang Satellite Launch Center

Loading…

Prossimi Passaggi (prossime 24 ore)

TLE

AggiornatoSource: Space-Track

Epoca: Sep 14, 2026, 13:58 UTC

1 52790U 22058F   26257.58259276  .00001287  00000-0  18951-3 0  9991
2 52790  50.0048 150.0555 0032932 128.0759 232.3157 14.81576345233188

Traccia GEESAT 1-06 in tempo reale con AllMySat

Download on the App Store